Weather History for CWGT - July, 2013

Change the Weather History Date:

Monday, July 22, 2013

  Actual Average Record
Temperature  
Mean Temperature 67 °F -  
Max Temperature 73 °F - - ()
Min Temperature 61 °F - - ()
Cooling Degree Days 2    
Growing Degree Days 17 (Base 50)    
Moisture  
Dew Point 55 °F    
Average Humidity 64    
Maximum Humidity 74    
Minimum Humidity 45    
Precipitation  
Precipitation 0.00 in - - ()
Sea Level Pressure  
Sea Level Pressure 29.99 in    
Wind  
Wind Speed 9 mph ()    
Max Wind Speed 23 mph    
Max Gust Speed -    
T = Trace of Precipitation, MM = Missing Value Source: Averaged Metar Reports

Daily Weather History Graph

Daily Weather History Graph

Search for Another Location

Airport or City:

Trip Planner

Search our weather history database for the weather conditions in past years. The results will help you decide how hot, cold, wet, or windy it might be!

Date:

Astronomy

Jul. 22, 2013 Rise Set
Actual Time 5:36 AM PDT 9:11 PM PDT
Civil Twilight 4:56 AM PDT 9:51 PM PDT
Nautical Twilight 4:02 AM PDT 10:44 PM PDT
Astronomical Twilight 2:45 AM PDT 11:59 PM PDT
Moon 8:51 PM PDT (7/22) 5:46 AM PDT (7/22)
Length of Visible Light 16h 54m
Length of Day
15h 35m
Full, 100% of the Moon is Illuminated
Jul 22
Full
Jul 29
Last Quarter
Aug 6
New
Aug 14
First Quarter
Aug 20
Full

Hourly Weather History & Observations

Time (PDT) Temp. Dew Point Humidity Pressure Visibility Wind Dir Wind Speed Gust Speed Precip Events Conditions
12:00 AM 65.8 °F 56.7 °F 72% 29.91 in - NW 16.1 mph - N/A   Unknown
1:00 AM 64.8 °F 54.9 °F 70% 29.91 in - NW 21.9 mph - N/A   Unknown
2:00 AM 63.5 °F 55.0 °F 74% 29.92 in - WNW 23.0 mph - N/A   Unknown
3:00 AM 63.3 °F 53.4 °F 70% 29.94 in - WNW 17.3 mph - N/A   Unknown
4:00 AM 62.6 °F 53.1 °F 71% 29.96 in - WNW 13.8 mph - N/A   Unknown
5:00 AM 62 °F 53 °F 63% 29.96 in - NW 11.5 mph - -  
5:00 AM 62.2 °F 52.7 °F 71% 29.96 in - NW 11.5 mph - N/A   Unknown
6:00 AM 61.9 °F 52.9 °F 72% 29.97 in - NW 11.5 mph - N/A   Unknown
7:00 AM 63.5 °F 53.6 °F 70% 29.99 in - NW 9.2 mph - N/A   Unknown
8:00 AM 63.3 °F 53.6 °F 71% 30.00 in - NNW 11.5 mph - N/A   Unknown
9:00 AM 63.5 °F 54.0 °F 71% 30.01 in - NW 9.2 mph - N/A   Unknown
10:00 AM 64.2 °F 53.8 °F 69% 30.02 in - NNW 6.9 mph - N/A   Unknown
11:00 AM 65 °F 54 °F 60% 30.02 in - NW 5.8 mph - -  
11:00 AM 64.9 °F 54.3 °F 68% 30.02 in - NW 5.8 mph - N/A   Unknown
12:00 PM 65.1 °F 54.5 °F 68% 30.03 in - NW 5.8 mph - N/A   Unknown
1:00 PM 66.6 °F 55.0 °F 66% 30.03 in - NNW 4.6 mph - N/A   Unknown
2:00 PM 68.4 °F 55.4 °F 63% 30.03 in - NW 3.5 mph - N/A   Unknown
3:00 PM 68.7 °F 55.6 °F 63% 30.03 in - WNW 3.5 mph - N/A   Unknown
4:00 PM 68.9 °F 56.7 °F 65% 30.02 in - West 2.3 mph - N/A   Unknown
5:00 PM 73 °F 56 °F 45% 30.01 in - NW 2.3 mph - -  
5:00 PM 72.9 °F 55.9 °F 55% 30.01 in - NW 2.3 mph - N/A   Unknown
6:00 PM 72.9 °F 55.9 °F 55% 30.00 in - NW 1.2 mph - N/A   Unknown
7:00 PM 70.3 °F 55.9 °F 60% 30.00 in - North 1.2 mph - N/A   Unknown
8:00 PM 71.2 °F 57.0 °F 61% 29.99 in - WNW 1.2 mph - N/A   Unknown
9:00 PM 69.4 °F 54.0 °F 58% 30.00 in - Calm Calm - N/A   Unknown
10:00 PM 68.9 °F 54.1 °F 59% 30.01 in - North 3.5 mph - N/A   Unknown
11:00 PM 69 °F 54 °F 49% 30.01 in - NNE 2.3 mph - -  
11:00 PM 69.4 °F 54.1 °F 58% 30.01 in - NNE 2.3 mph - N/A   Unknown